Location: Batang Balui
(2.7000°N, 113.7833°E)
Time: 06:50:53
(UTC+00:00)

TIGRISAT - Visible Passes

Search period start: 01 April 2023 00:00
Search period end: 11 April 2023 00:00
Orbit: 601 x 681 km, 97.7° (Epoch: 31 March)

Date Brightness Start Highest point End Pass type
(mag) Time Alt. Az. Time Alt. Az. Time Alt. Az.
01 Apr ? 20:49:05 10° ESE 20:51:26 14° ENE 20:53:47 10° NE visible
02 Apr ? 21:11:27 10° SE 21:15:15 31° ENE 21:19:06 10° NNE visible
03 Apr ? 21:34:48 10° SSE 21:39:05 70° E 21:43:28 10° N visible
04 Apr ? 21:58:46 10° S 22:02:57 51° W 22:07:13 10° NNW visible
05 Apr ? 20:48:10 10° ESE 20:50:32 14° ENE 20:52:56 10° NE visible
06 Apr ? 21:10:30 10° SE 21:14:20 31° ENE 21:18:14 10° NNE visible
07 Apr ? 21:33:49 10° SSE 21:38:09 70° ENE 21:42:33 10° N visible
08 Apr ? 21:57:44 10° S 22:01:58 52° WSW 22:06:18 10° NNW visible
09 Apr ? 20:47:08 10° ESE 20:49:32 15° ENE 20:51:59 10° NE visible
10 Apr ? 21:09:25 10° SE 21:13:18 31° ENE 21:17:14 10° NNE visible
